sat.trackr.live / text

‹ back to catalog

ONEWEB-0139

NORAD 47285 · 2020-100AD

PAYLOAD ACTIVE UNKNOWN

§ Identity

Operator
Country
UK
Launch date
2020-12-18
Launch site
VOSTO
Launch vehicle
Mass (kg)
RCS (m²)

Purposes: comms

External: N2YO · Heavens-Above · Gunter

§ Orbital elements

Epoch: 2026-05-25T03:27:53.161920Z

Period
109.72 min
Inclination
87.8958°
Eccentricity
0.0001728
Mean motion
13.12443400 rev/d
Perigee alt
1,212.4 km
Apogee alt
1,215.0 km
Semi-major
7,591.9 km
B*
-1.1355e-3
RAAN
355.2338°
Arg perigee
86.7994°
Mean anomaly
273.3332°
Rev number
26,170

§ Raw data

ONEWEB-01391 47285U 20100AD  26145.14436530 -.00000396  00000+0 -11355-2 0  99992 47285  87.8958 355.2338 0001728  86.7994 273.3332 13.12443400261704

JSON: /api/v1/satellites/47285 · /tle

For live sub-satellite position, see the globe view (requires WebGL).

§ Visibility from observer

Set your observer location to see the next 7 days of passes ≥ 10°. The values pass through the URL so the page stays shareable.

No JS? Fill the form by hand. The geolocation button needs JavaScript.